Regional Weather Roundup
Issued by NWS

Home | Current Version | Previous Version | Text Only | Print | Product List | Glossary Off
Versions: 1 2 3 4 5 6 7 8 9 10 11 12 13 14 15 16 17 18 19 20 21 22 23 24 25 26 27 28

000
ASUS45 KSLC 181010
RWRUT

UTAH REGIONAL WEATHER ROUNDUP
NATIONAL WEATHER SERVICE SALT LAKE CITY UT
300 AM MST SAT NOV 18 2017

UTZ001>011-023>025-181100-

NORTHERN UTAH

CITY           SKY/WX    TMP DP  RH WIND       PRES   REMARKS
BRIGHAM CITY   PTCLDY    28  22  78 SE7       30.40R WCI  21
HILL AFB       CLEAR     27  19  71 E8        30.38R WCI  19
LOGAN          CLEAR     28  21  75 CALM      30.37R
OGDEN          CLEAR     27  21  78 S6        30.38R WCI  20
SALT LAKE CITY MOCLDY    32  24  72 SE3       30.40R
TOOELE VALLEY  CLEAR     28  23  80 S8        30.41R WCI  20
WENDOVER       CLEAR     33  14  45 NW3       30.40R
HEBER CITY       N/A     21  16  79 E8        30.34R WCI  12
WEST JORDAN    MOCLDY    32  25  77 CALM      30.40R

$$

UTZ011>015-024>027-181100-

CENTRAL/NORTHEAST UTAH

CITY           SKY/WX    TMP DP  RH WIND       PRES   REMARKS
PROVO AIRPORT  PTCLDY    26  21  81 SE6       30.40R WCI  19
MOAB/CANYONLAN PTCLDY    31  13  47 NW15      30.30R WCI  20
DELTA          MOCLDY    23  21  93 CALM      30.40R
PRICE          MOCLDY    26  14  60 N10       30.31R WCI  16
RICHFIELD      CLEAR     23  23 100 CALM      30.41R
ROOSEVELT      CLEAR     28  14  54 W6        30.32R WCI  22
VERNAL         CLEAR     24  10  55 NE5       30.29R WCI  18

$$

UTZ013>016-019>022-027-181100-

SOUTHERN UTAH

CITY           SKY/WX    TMP DP  RH WIND       PRES   REMARKS
BRYCE CANYON   CLOUDY    11   7  84 W8        30.31R WCI  -1
CEDAR CITY     CLOUDY    22  18  85 N9        30.32R WCI  12
MILFORD        CLOUDY    19  17  92 N5        30.39R WCI  12
ST GEORGE      MOSUNNY   45  15  30 NE14      30.30R
HANKSVILLE     PTCLDY    27  10  50 W3        30.36R
KANAB          CLEAR     30  16  55 NW9       30.35R WCI  22
BLANDING         N/A     27   9  45 E8        30.34R WCI  19

$$

REGIONAL REPORTS     COLORADO/ARIZONA

CITY           SKY/WX    TMP DP  RH WIND       PRES   REMARKS
CRAIG, CO      CLOUDY    16  11  80 SW5       30.28R WCI   9
GRAND JUNCTION CLEAR     22  18  85 CALM      30.31R
RIFLE, CO      CLEAR     24  20  84 SW6       30.30R WCI  17
MONTROSE, CO   CLEAR     27  21  78 E3        30.33R
CORTEZ, CO     CLEAR     29  16  58 NW9       30.26R WCI  20
COLORADO CITY    N/A     34  14  44 E7        30.31S WCI  28
PAGE, AZ       PTCLDY    41  18  39 NW5       30.29R
GRAND CANYON   PTCLDY    28  24  85 CALM      30.27R
KINGMAN, AZ    CLEAR     46  18  32 E12       30.23R
FLAGSTAFF, AZ  CLEAR     30  24  78 E9        30.26R WCI  22

$$

REGIONAL REPORTS    NEVADA/IDAHO/WYOMING

CITY           SKY/WX    TMP DP  RH WIND       PRES   REMARKS
LAS VEGAS, NV  CLEAR     53  13  20 N16       30.28R
ELY, NY        CLOUDY    11   8  88 S10       30.38R WCI  -3
ELKO, NV       MOCLDY    19  14  81 S6        30.39R WCI  11
POCATELLO, ID  CLEAR     27  22  81 SW12      30.36R WCI  17
BURLEY, ID     CLEAR     29  21  72 SW9       30.36R WCI  20
EVANSTON, WY   CLOUDY    14  11  87 SW10      30.29R WCI   1
ROCK SPRINGS,  CLEAR     18  13  80 W24       30.23S WCI   0

$$




USA.gov is the U.S. government's official web portal to all federal, state and local government web resources and services.